When you browse on this site, cookies collect data to enhance your experience and personalize the content and advertising you see.
Visit our Privacy Policy to learn more. By continuing to use the site, you agree to this use of cookies and data.
  • In Czech Republic
  • List of Countries
  • For 7 days
  • Water Temperature
  • Satellite Maps
  • Weather Map
  • Weather Widgets
  • user-avatar
    Login

    Hourly Weather Berat

    Today, 16 November, Friday

    Time Temperature Precipitation Wind Pressure Humidity
    00:00 +10°C° 0 mm 3 mps 748 mmHg 57%
    01:00 +9°C° 0 mm 3 mps 748 mmHg 57%
    02:00 +9°C° 0 mm 3 mps 748 mmHg 58%
    03:00 +9°C° 0 mm 3 mps 748 mmHg 60%
    04:00 +9°C° 0 mm 3 mps 748 mmHg 61%
    05:00 +8°C° 0 mm 3 mps 748 mmHg 63%
    06:00 +8°C° 0 mm 3 mps 748 mmHg 65%
    07:00 +7°C° 0 mm 4 mps 748 mmHg 66%
    08:00 +10°C° 0 mm 4 mps 748 mmHg 62%
    09:00 +11°C° 0 mm 4 mps 748 mmHg 58%
    10:00 +12°C° 0 mm 4 mps 748 mmHg 54%
    11:00 +13°C° 0.1 mm 3 mps 748 mmHg 54%
    12:00 +13°C° 0.1 mm 3 mps 748 mmHg 53%
    13:00 +13°C° 0 mm 3 mps 747 mmHg 53%
    14:00 +12°C° 0.3 mm 3 mps 747 mmHg 57%
    15:00 +13°C° 0.3 mm 2 mps 747 mmHg 61%
    16:00 +12°C° 0.3 mm 2 mps 747 mmHg 64%
    17:00 +10°C° 0.5 mm 3 mps 747 mmHg 67%
    18:00 +10°C° 0.5 mm 3 mps 747 mmHg 70%
    19:00 +9°C° 0.5 mm 3 mps 747 mmHg 73%
    20:00 +8°C° 0.8 mm 4 mps 747 mmHg 74%
    21:00 +8°C° 0.8 mm 4 mps 747 mmHg 76%
    22:00 +7°C° 0.8 mm 4 mps 747 mmHg 77%
    23:00 +7°C° 1 mm 4 mps 747 mmHg 78%

    Tomorrow, 17 November, Saturday

    Time Temperature Precipitation Wind Pressure Humidity
    00:00 +7°C° 1 mm 4 mps 747 mmHg 79%
    01:00 +7°C° 1 mm 4 mps 747 mmHg 80%
    02:00 +8°C° 0.5 mm 3 mps 747 mmHg 80%
    03:00 +8°C° 0.5 mm 3 mps 747 mmHg 80%
    04:00 +8°C° 0.5 mm 3 mps 747 mmHg 80%
    05:00 +8°C° 0.3 mm 3 mps 747 mmHg 80%
    06:00 +8°C° 0.3 mm 3 mps 747 mmHg 80%
    07:00 +8°C° 0.3 mm 3 mps 747 mmHg 80%
    08:00 +8°C° 0.1 mm 4 mps 747 mmHg 77%
    09:00 +8°C° 0.1 mm 4 mps 747 mmHg 73%
    10:00 +10°C° 0.1 mm 4 mps 747 mmHg 70%
    11:00 +10°C° 0 mm 4 mps 747 mmHg 69%
    12:00 +11°C° 0 mm 4 mps 747 mmHg 67%
    13:00 +11°C° 0 mm 4 mps 746 mmHg 66%
    14:00 +10°C° 0 mm 4 mps 746 mmHg 67%
    15:00 +10°C° 0 mm 4 mps 746 mmHg 69%
    16:00 +8°C° 0 mm 4 mps 746 mmHg 70%
    17:00 +8°C° 0 mm 4 mps 746 mmHg 72%
    18:00 +7°C° 0 mm 4 mps 746 mmHg 73%
    19:00 +6°C° 0 mm 4 mps 746 mmHg 75%
    20:00 +6°C° 0 mm 4 mps 747 mmHg 75%
    21:00 +6°C° 0 mm 4 mps 747 mmHg 75%
    22:00 +6°C° 0 mm 4 mps 747 mmHg 76%
    23:00 +6°C° 0.1 mm 4 mps 747 mmHg 76%

    Day after tomorrow, 18 November, Sunday

    Time Temperature Precipitation Wind Pressure Humidity
    00:00 +6°C° 0.1 mm 4 mps 747 mmHg 76%
    01:00 +6°C° 0.1 mm 4 mps 746 mmHg 76%
    02:00 +6°C° 0 mm 4 mps 746 mmHg 77%
    03:00 +6°C° 0 mm 4 mps 746 mmHg 77%
    04:00 +6°C° 0 mm 4 mps 746 mmHg 77%
    05:00 +6°C° 0.1 mm 4 mps 746 mmHg 78%
    06:00 +8°C° 0.1 mm 3 mps 746 mmHg 78%
    07:00 +8°C° 0.1 mm 3 mps 746 mmHg 78%
    08:00 +8°C° 0.2 mm 3 mps 746 mmHg 77%
    09:00 +9°C° 0.2 mm 3 mps 746 mmHg 75%
    10:00 +10°C° 0.2 mm 3 mps 745 mmHg 74%
    11:00 +10°C° 0.9 mm 3 mps 745 mmHg 76%
    12:00 +10°C° 0.9 mm 3 mps 744 mmHg 77%
    13:00 +10°C° 0.9 mm 3 mps 744 mmHg 78%
    14:00 +9°C° 1.5 mm 3 mps 744 mmHg 80%
    15:00 +9°C° 1.5 mm 3 mps 743 mmHg 81%
    16:00 +9°C° 1.5 mm 3 mps 743 mmHg 83%
    17:00 +8°C° 0.5 mm 3 mps 743 mmHg 83%
    18:00 +8°C° 0.5 mm 3 mps 743 mmHg 83%
    19:00 +8°C° 0.5 mm 3 mps 742 mmHg 83%
    20:00 +8°C° 0.1 mm 3 mps 742 mmHg 83%
    21:00 +8°C° 0.1 mm 2 mps 742 mmHg 83%
    22:00 +8°C° 0.1 mm 2 mps 742 mmHg 83%
    23:00 +8°C° 0 mm 2 mps 741 mmHg 83%

    19 November, Monday

    Time Temperature Precipitation Wind Pressure Humidity
    00:00 +8°C° 0 mm 2 mps 741 mmHg 83%
    01:00 +8°C° 0 mm 2 mps 741 mmHg 83%
    02:00 +7°C° 0 mm 2 mps 741 mmHg 83%
    03:00 +7°C° 0 mm 2 mps 741 mmHg 83%
    04:00 +8°C° 0 mm 1 mps 740 mmHg 83%
    05:00 +8°C° 0 mm 1 mps 740 mmHg 82%
    06:00 +8°C° 0 mm 1 mps 740 mmHg 82%
    07:00 +8°C° 0 mm 1 mps 740 mmHg 81%
    08:00 +9°C° 0 mm 1 mps 741 mmHg 78%
    09:00 +11°C° 0 mm 1 mps 741 mmHg 74%
    10:00 +13°C° 0 mm 1 mps 741 mmHg 70%
    11:00 +13°C° 0 mm 1 mps 740 mmHg 70%
    12:00 +14°C° 0 mm 2 mps 740 mmHg 69%
    13:00 +14°C° 0 mm 2 mps 740 mmHg 68%
    14:00 +13°C° 0.3 mm 2 mps 740 mmHg 73%
    15:00 +13°C° 0.3 mm 2 mps 740 mmHg 77%
    16:00 +12°C° 0.3 mm 2 mps 740 mmHg 82%
    17:00 +12°C° 0.5 mm 2 mps 740 mmHg 84%
    18:00 +11°C° 0.5 mm 3 mps 740 mmHg 85%
    19:00 +10°C° 0.5 mm 4 mps 740 mmHg 87%
    20:00 +10°C° 1.2 mm 4 mps 740 mmHg 87%
    21:00 +10°C° 1.2 mm 4 mps 739 mmHg 87%
    22:00 +11°C° 1.2 mm 4 mps 739 mmHg 88%
    23:00 +9°C° 2.8 mm 5 mps 739 mmHg 88%

    20 November, Tuesday

    Time Temperature Precipitation Wind Pressure Humidity
    00:00 +9°C° 2.8 mm 5 mps 739 mmHg 88%
    01:00 +9°C° 2.8 mm 5 mps 738 mmHg 88%
    02:00 +9°C° 3.4 mm 5 mps 738 mmHg 89%
    03:00 +10°C° 3.4 mm 5 mps 738 mmHg 89%
    04:00 +10°C° 3.4 mm 5 mps 737 mmHg 89%
    05:00 +10°C° 2.5 mm 5 mps 737 mmHg 89%
    06:00 +10°C° 2.5 mm 5 mps 737 mmHg 89%
    07:00 +10°C° 2.5 mm 5 mps 737 mmHg 89%
    08:00 +12°C° 3 mm 5 mps 737 mmHg 89%
    09:00 +12°C° 3 mm 5 mps 737 mmHg 89%
    10:00 +12°C° 3 mm 5 mps 737 mmHg 89%
    11:00 +13°C° 1.7 mm 6 mps 736 mmHg 88%
    12:00 +14°C° 1.7 mm 6 mps 735 mmHg 87%
    13:00 +14°C° 1.7 mm 7 mps 735 mmHg 85%
    14:00 +15°C° 1.1 mm 7 mps 735 mmHg 86%
    15:00 +15°C° 1.1 mm 7 mps 734 mmHg 86%
    16:00 +15°C° 1.1 mm 7 mps 734 mmHg 86%
    17:00 +15°C° 1.3 mm 7 mps 734 mmHg 88%
    18:00 +14°C° 1.3 mm 6 mps 734 mmHg 89%
    19:00 +14°C° 1.3 mm 5 mps 735 mmHg 91%
    20:00 +14°C° 0.6 mm 5 mps 735 mmHg 91%
    21:00 +14°C° 0.6 mm 5 mps 735 mmHg 91%
    22:00 +14°C° 0.6 mm 5 mps 735 mmHg 91%
    23:00 +13°C° 0.7 mm 5 mps 735 mmHg 91%

    21 November, Wednesday

    Time Temperature Precipitation Wind Pressure Humidity
    00:00 +13°C° 0.7 mm 5 mps 735 mmHg 91%
    01:00 +13°C° 0.7 mm 5 mps 735 mmHg 91%
    02:00 +13°C° 0.8 mm 5 mps 735 mmHg 91%
    03:00 +13°C° 0.8 mm 5 mps 735 mmHg 91%
    04:00 +13°C° 0.8 mm 5 mps 735 mmHg 92%
    05:00 +13°C° 1.5 mm 4 mps 735 mmHg 92%
    06:00 +13°C° 1.5 mm 4 mps 736 mmHg 92%
    07:00 +13°C° 1.5 mm 4 mps 736 mmHg 93%
    08:00 +13°C° 2 mm 3 mps 736 mmHg 92%
    09:00 +14°C° 2 mm 3 mps 737 mmHg 92%
    10:00 +15°C° 2 mm 2 mps 737 mmHg 92%
    11:00 +15°C° 1.2 mm 2 mps 737 mmHg 89%
    12:00 +15°C° 1.2 mm 2 mps 737 mmHg 86%
    13:00 +16°C° 1.2 mm 2 mps 738 mmHg 83%
    14:00 +15°C° 0.5 mm 2 mps 738 mmHg 84%
    15:00 +15°C° 0.5 mm 2 mps 738 mmHg 85%
    16:00 +15°C° 0.5 mm 2 mps 738 mmHg 86%
    17:00 +13°C° 0.2 mm 3 mps 739 mmHg 87%
    18:00 +13°C° 0.2 mm 3 mps 739 mmHg 89%
    19:00 +12°C° 0.2 mm 3 mps 740 mmHg 90%
    20:00 +12°C° 0.6 mm 3 mps 741 mmHg 91%
    21:00 +12°C° 0.6 mm 3 mps 741 mmHg 92%
    22:00 +12°C° 0.6 mm 3 mps 742 mmHg 93%
    23:00 +12°C° 0.3 mm 3 mps 742 mmHg 92%
    Show more